Theta_e
335 335 335 335 334 334 334 335 335 335 337 340 343 344 347 348 349 351 352 353 355 355 354 356 356 354 352 351 352 354 353 352 354 352 350 351 351 352 353 353 349 349 350
330 329 329 329 329 328 329 328 330 331 332 334 335 337 339 341 344 345 349 350 352 354 355 355 355 354 354 350 351 350 353 353 352 354 352 352 354 352 353 354 352 350 349
327 328 329 329 327 327 327 327 328 328 329 329 332 333 334 336 338 340 343 348 350 351 351 353 353 354 354 353 353 350 349 352 353 353 354 353 352 352 353 354 354 353 351
327 327 328 328 327 327 327 327 328 328 328 328 328 329 331 332 334 336 340 341 345 347 349 350 351 352 352 353 353 354 353 352 353 353 354 353 353 351 352 353 352 353 351
327 327 327 327 327 327 327 327 327 328 328 328 328 329 329 329 328 330 331 333 338 342 345 348 349 349 348 349 348 351 353 353 352 352 352 353 352 352 353 353 353 352 352
326 326 326 326 327 326 326 326 326 327 328 329 330 330 331 330 329 327 325 327 332 338 341 343 346 347 348 347 345 344 346 349 351 351 351 351 351 352 352 352 352 353 354
326 326 326 326 326 325 324 323 324 326 327 328 329 329 329 329 329 327 326 327 329 333 337 338 343 344 345 346 347 347 345 344 344 347 350 349 350 350 352 352 353 353 351
326 325 325 325 324 323 323 323 324 325 325 326 327 328 328 328 327 327 327 329 330 330 333 335 338 342 343 343 342 345 346 346 347 347 348 348 349 349 350 351 351 351 350
324 323 322 323 324 323 323 324 325 326 326 326 326 328 329 329 327 327 327 330 331 331 332 335 336 337 340 339 340 340 343 344 340 337 336 334 334 335 337 341 346 350 349
322 321 321 323 324 324 323 325 326 326 328 328 328 328 325 324 325 323 325 328 331 331 332 335 336 338 338 338 338 339 342 341 341 340 338 338 338 340 339 342 341 346 348
321 320 321 322 324 323 324 325 324 325 327 327 327 328 326 324 324 321 321 322 326 328 333 335 336 335 334 334 334 337 337 335 334 336 334 335 336 337 338 341 344 347 346
321 321 321 323 323 323 324 325 324 324 325 326 326 326 325 325 322 320 322 321 321 325 330 332 333 331 330 330 331 330 329 330 334 335 335 335 334 334 335 338 339 341 343
321 321 321 322 322 322 323 322 322 322 323 324 324 322 321 323 324 318 319 320 323 326 329 326 327 329 330 331 330 329 333 334 334 335 335 335 335 334 334 334 334 336 338
320 321 320 320 320 321 321 321 319 320 321 321 320 319 320 321 320 314 315 318 322 326 327 330 330 330 328 328 328 327 326 325 326 328 328 330 331 332 331 332 332 333 333
319 319 318 318 319 319 319 319 319 315 314 314 314 314 315 317 311 307 312 313 317 321 322 323 321 323 324 323 320 319 320 323 324 324 324 324 325 327 327 327 327 328 329
317 316 315 314 315 315 317 319 317 315 313 311 308 307 309 308 305 307 311 312 316 319 320 317 316 316 317 317 317 316 316 317 319 321 322 322 322 323 324 323 325 326 327
317 316 315 313 313 313 312 314 315 313 313 311 309 307 306 303 303 305 310 312 313 315 313 313 312 312 313 313 313 312 312 312 311 312 314 317 318 318 318 320 321 322 323
317 313 315 315 313 313 311 311 311 311 311 311 309 307 306 304 305 305 309 312 314 313 312 311 311 310 311 310 310 310 311 312 312 312 312 312 312 313 313 314 316 317 318
317 316 317 316 315 312 312 311 312 312 311 310 310 309 308 307 307 308 308 310 310 310 310 310 310 310 310 310 310 309 309 308 308 309 309 309 309 309 310 310 311 310 311
316 316 313 315 316 314 314 312 313 313 312 311 310 309 308 309 310 309 309 309 309 309 309 309 309 309 309 309 309 309 308 308 308 308 307 307 307 307 308 308 309 309 310
313 314 315 313 314 315 314 314 313 313 313 312 311 309 304 306 309 309 309 309 309 309 309 309 309 309 309 309 309 308 308 308 308 307 306 306 306 306 306 306 307 307 307
313 313 314 314 314 314 315 314 314 313 313 313 312 311 308 308 309 309 309 308 308 308 308 308 308 308 308 308 308 308 308 307 307 306 304 304 304 304 304 304 304 305 306
315 315 315 315 315 314 314 314 314 314 313 313 313 312 311 311 310 309 309 308 308 308 307 307 308 308 307 307 307 307 307 307 305 304 304 304 303 303 303 303 303 304 305
318 317 316 316 316 316 315 315 314 314 312 312 312 312 312 312 311 311 311 310 310 309 309 308 307 307 307 307 307 307 306 305 303 303 303 302 303 304 304 304 303 303 304
319 319 318 316 317 317 317 316 315 314 313 313 313 312 312 312 312 312 312 312 311 311 310 310 309 308 307 307 307 307 306 303 301 301 300 301 302 303 302 299 300 301 303
320 320 319 317 317 317 318 317 317 315 314 312 312 312 312 312 312 312 312 312 312 311 311 310 310 309 309 307 306 306 304 302 302 301 300 299 302 302 300 299 299 300 301
Wind_Speed
7 5 4 4 5 6 7 8 9 10 12 13 13 13 13 12 11 11 12 14 15 18 19 18 19 21 20 20 16 17 17 16 15 20 20 18 17 17 17 15 15 16 16
6 5 5 6 7 9 11 11 12 12 13 13 14 14 14 15 14 14 14 15 13 14 17 18 17 17 16 18 19 19 17 19 19 19 21 19 17 18 18 17 17 18 17
7 7 7 8 9 10 12 13 13 14 15 15 15 14 15 15 16 17 17 16 15 16 15 15 16 16 16 15 17 19 19 19 17 20 21 20 20 16 14 17 17 17 18
6 5 6 7 9 10 11 13 14 14 15 15 15 16 15 15 15 16 14 15 16 16 16 15 16 15 14 13 14 16 17 19 19 19 19 19 18 18 16 16 16 16 18
6 6 7 8 9 10 11 12 12 12 12 14 15 15 16 16 15 12 15 17 17 18 17 16 15 15 16 14 14 15 14 15 15 14 15 17 19 16 13 16 14 15 15
4 6 7 8 9 10 11 12 11 12 12 13 14 15 16 16 18 22 19 18 19 19 18 18 17 16 17 16 18 20 20 17 18 17 16 16 16 17 17 15 13 14 12
4 5 6 7 8 9 10 10 10 11 13 13 13 13 14 15 17 19 18 17 18 19 18 18 18 17 15 15 16 17 17 16 21 19 20 20 19 18 16 16 15 14 16
5 6 6 6 8 8 9 10 10 11 12 12 13 13 14 14 17 19 20 17 18 19 20 18 18 18 17 15 16 15 14 13 14 14 15 16 17 18 16 15 15 18 19
5 5 6 6 7 8 9 10 10 11 11 11 11 13 13 13 15 17 20 18 17 17 18 17 17 18 18 18 15 16 14 12 10 9 11 14 17 19 20 17 17 13 12
4 5 6 6 7 7 8 9 9 10 10 10 11 10 10 10 12 18 18 14 16 16 14 14 14 14 18 18 15 13 12 10 9 9 12 13 12 11 11 11 14 16 14
4 5 6 7 7 7 8 8 9 9 8 8 9 8 9 10 10 19 18 13 12 13 14 12 8 10 5 3 3 4 7 7 10 12 13 13 11 11 11 8 10 14 15
3 4 6 5 6 5 7 6 6 8 9 7 8 9 9 10 12 18 19 18 15 11 10 9 10 9 6 4 4 6 8 8 9 11 12 11 11 11 12 12 17 16 17
3 4 5 6 5 5 6 5 6 7 8 9 10 10 12 12 10 19 20 19 17 13 9 10 7 5 3 0 9 8 6 6 7 8 10 12 11 11 15 16 16 16 18
5 5 5 6 6 6 8 3 5 8 9 10 11 12 12 12 12 18 19 18 17 13 12 9 3 3 8 7 7 9 8 7 6 7 9 10 10 11 13 15 17 18 19
5 5 5 5 5 6 5 5 3 3 4 8 9 12 12 12 15 17 15 16 15 12 10 11 12 11 8 8 8 9 7 7 7 7 8 9 10 12 13 13 13 15 15
6 4 3 5 4 4 6 3 5 3 4 4 8 8 9 11 16 14 10 12 12 7 7 10 11 10 10 9 9 9 8 8 9 10 10 11 12 13 14 16 15 15 16
4 3 3 4 4 4 5 5 6 7 5 4 4 7 10 12 15 14 8 6 12 8 9 8 8 8 8 8 9 9 10 9 10 9 11 12 13 14 15 16 16 16 17
5 4 4 4 4 4 4 5 5 4 6 3 4 6 10 11 13 14 7 5 2 7 7 7 7 7 7 8 9 10 10 9 10 11 11 12 13 15 17 17 18 18 19
9 7 5 5 4 4 4 4 4 4 4 6 5 3 6 11 8 9 11 7 7 7 7 7 6 7 8 9 9 9 10 10 10 11 11 12 13 15 17 18 19 21 21
10 11 9 9 6 5 4 5 5 5 5 5 6 6 8 8 5 6 6 6 6 6 7 7 7 7 8 9 10 10 10 11 11 11 12 14 15 17 19 20 21 22 23
9 8 9 10 10 8 7 7 6 7 6 5 5 3 8 6 7 6 6 6 6 6 6 7 7 8 8 9 10 11 11 12 12 14 15 16 18 21 22 22 23 24 25
10 9 9 10 9 9 10 9 9 9 8 8 7 3 7 6 6 7 6 7 7 7 7 8 9 9 9 10 11 12 13 13 14 16 18 20 21 23 24 23 23 24 25
13 12 11 10 11 10 11 12 12 11 11 10 9 8 7 7 7 8 8 8 7 8 8 9 10 10 10 11 12 12 13 14 15 18 21 22 22 22 23 25 26 26 27
17 15 14 13 12 12 12 12 13 13 14 14 12 11 10 10 9 9 9 9 9 9 9 10 11 12 12 13 13 13 13 12 17 19 21 25 25 27 27 26 27 30 32
20 19 17 17 16 15 13 14 14 14 13 14 12 11 12 11 11 11 12 11 11 11 11 11 12 12 14 15 16 15 15 20 21 22 22 26 29 29 28 28 30 32 32
21 22 21 21 20 19 18 15 14 13 12 13 13 13 12 12 12 13 13 13 13 14 14 15 14 15 16 17 15 14 21 24 24 27 29 27 28 26 32 32 34 32 32
Wind_Direction
74 67 32 357 333 323 318 319 318 315 316 320 318 319 314 314 314 304 296 293 280 271 267 260 260 258 259 260 248 249 250 251 256 267 266 265 263 265 270 272 265 251 259
50 33 15 352 341 332 330 327 324 320 318 315 313 312 314 313 312 312 307 296 288 280 272 270 265 263 257 255 250 253 251 253 250 263 267 276 249 252 260 262 259 257 253
17 6 356 349 342 338 333 330 326 322 318 316 314 313 311 309 308 305 301 302 297 287 279 270 264 263 262 251 245 240 247 256 261 254 262 264 269 260 261 267 258 253 251
1 360 358 349 342 336 333 331 329 327 324 321 313 308 305 303 300 295 294 304 301 294 291 281 277 270 267 260 254 254 247 248 250 252 260 268 265 265 246 258 256 249 256
352 346 349 338 334 330 329 327 328 324 323 324 322 320 315 309 302 328 310 307 300 294 291 291 281 276 267 260 259 260 258 254 241 234 244 258 262 267 254 253 257 272 249
331 327 330 330 328 327 330 329 329 328 329 329 328 325 321 316 314 309 313 302 295 293 292 289 287 277 272 274 266 258 251 256 256 248 260 263 273 272 268 267 261 266 266
312 315 318 318 323 327 327 329 325 327 327 324 321 322 320 316 310 312 312 301 285 279 281 285 287 282 273 268 268 265 256 257 253 258 262 260 271 268 270 270 263 260 262
300 310 318 319 328 332 330 332 329 327 323 318 318 322 323 323 329 332 323 307 291 279 274 278 284 287 285 286 281 273 268 264 261 252 255 263 271 275 276 278 270 267 268
285 305 308 312 316 321 323 329 326 323 322 317 315 314 319 324 326 326 325 318 301 292 280 277 283 286 289 286 277 272 269 269 263 262 279 277 276 274 273 274 274 258 261
279 287 294 293 305 307 316 319 322 321 322 331 331 340 345 344 338 345 337 322 316 308 285 274 290 286 281 279 277 267 267 269 282 286 291 293 295 296 301 261 264 256 252
290 294 298 292 303 305 312 319 324 320 327 335 343 343 350 352 350 354 360 346 325 319 310 309 320 320 341 347 303 312 290 289 297 292 290 288 289 284 279 271 289 272 269
280 289 292 295 296 305 307 305 305 321 308 320 339 336 343 344 341 353 5 12 357 316 312 320 319 314 338 340 353 303 308 310 291 293 297 300 302 302 307 321 307 293 286
271 274 289 301 298 296 311 320 322 317 319 327 333 338 339 338 345 345 355 8 355 348 321 308 325 341 335 328 28 17 14 344 336 312 312 308 322 317 310 297 293 294 288
284 289 292 291 305 293 294 301 317 324 331 332 335 336 336 337 347 346 344 350 348 354 346 335 342 59 58 63 47 29 23 17 3 345 330 321 316 311 304 304 312 308 302
266 269 277 273 294 301 297 310 291 305 335 336 339 336 336 338 339 338 338 346 345 343 4 38 40 38 29 31 29 24 12 1 353 333 323 319 315 306 308 313 313 313 308
261 260 298 300 304 319 308 278 238 271 315 317 339 341 345 326 331 339 339 353 353 15 31 34 33 29 27 17 12 4 360 353 345 333 328 329 325 319 316 312 305 307 305
263 284 303 291 308 307 315 309 310 229 261 247 340 344 341 338 346 351 348 8 11 40 54 37 29 20 9 4 354 348 341 340 342 341 336 330 323 316 315 312 308 306 304
242 249 271 306 315 313 315 315 312 330 326 285 274 340 339 351 5 19 29 342 307 26 35 23 11 3 360 355 349 345 342 344 345 340 333 329 324 321 315 312 310 307 307
243 253 266 284 302 312 312 310 319 332 336 332 326 305 346 338 352 13 23 22 18 21 21 24 14 5 3 354 351 349 346 347 345 343 341 334 327 321 316 312 309 305 302
240 242 260 279 276 277 287 301 307 315 324 344 336 345 339 329 353 354 353 360 360 360 360 351 350 345 344 339 335 334 333 333 334 334 331 328 326 324 316 312 307 304 301
252 246 230 266 268 269 279 281 289 298 305 320 326 347 334 322 333 335 337 341 338 337 335 334 331 328 325 322 320 320 324 325 328 327 325 322 321 317 314 308 304 302 300
251 254 254 258 266 266 261 266 272 278 284 286 297 288 325 298 311 318 321 324 330 329 324 323 319 321 320 319 317 318 321 324 328 326 320 315 313 313 311 305 300 298 297
249 254 255 257 264 268 265 259 265 268 271 275 279 285 281 288 296 298 302 304 309 311 312 311 308 310 314 314 311 312 313 319 321 320 315 311 303 297 297 297 291 289 287
247 251 256 260 261 268 268 263 265 257 266 278 278 275 275 279 283 283 284 289 295 299 305 307 308 306 306 308 309 308 310 312 315 315 313 311 308 305 304 296 290 289 286
245 248 247 254 257 255 257 256 263 264 268 264 265 270 269 269 273 279 280 281 284 290 295 300 301 306 309 306 303 300 296 304 311 314 317 309 306 302 298 293 289 288 286
244 247 246 246 248 249 255 261 262 262 262 262 258 261 266 267 269 274 278 281 282 285 291 295 295 300 306 307 302 290 297 309 313 317 315 311 305 299 302 297 295 291 288